Location: Bakov nad Jizerou
(50.4784°N, 14.9394°E)
Time: 23:21:26
(UTC+00:00)

Cosmos 1674 Rocket - Pass Details

Date: 16 June 2021
Orbit: 602 x 630 km, 82.5° (Epoch: 23 July)

Event Time Altitude Azimuth Distance (km) Brightness Sun altitude
Rises 19:48:54 0° 199° (SSW) 2,893 6.7 -4.8°
Reaches altitude 10° 19:51:09 10° 203° (SSW) 1,987 5.9 -5.1°
Maximum altitude 19:55:29 58° 283° (WNW) 724 4.3 -5.6°
Drops below altitude 10° 19:59:50 10° 3° (N) 1,986 6.9 -6.0°
Sets 20:02:06 0° 8° (N) 2,891 7.7 -6.2°
